Temp
-7 -7 -8 -8 -8 -8 -8 -8 -8 -7 -8 -8 -8 -8 -7 -7 -7 -7 -7 -6 -6 -7 -7 -6 -6 -6 -6 -7 -7 -7 -7 -7 -7
-7 -7 -7 -8 -8 -8 -8 -7 -7 -8 -8 -8 -8 -8 -7 -7 -7 -7 -7 -7 -6 -6 -6 -6 -6 -6 -6 -6 -7 -7 -7 -7 -7
-7 -6 -7 -8 -8 -8 -7 -7 -7 -7 -7 -7 -7 -8 -8 -8 -8 -7 -7 -7 -7 -6 -6 -6 -6 -6 -6 -6 -6 -6 -7 -7 -7
-8 -7 -7 -7 -8 -8 -7 -7 -7 -7 -7 -7 -8 -8 -8 -8 -8 -8 -8 -7 -6 -6 -6 -6 -6 -6 -6 -6 -6 -6 -6 -6 -6
-8 -7 -7 -8 -8 -8 -8 -8 -7 -7 -7 -7 -7 -7 -7 -7 -7 -6 -7 -7 -6 -6 -6 -6 -6 -6 -7 -6 -6 -6 -7 -6 -6
-8 -8 -8 -7 -7 -8 -7 -7 -7 -7 -7 -7 -6 -6 -7 -7 -6 -6 -6 -6 -6 -6 -6 -6 -6 -6 -6 -6 -6 -6 -7 -7 -7
-8 -8 -8 -8 -7 -7 -7 -7 -6 -6 -6 -6 -7 -7 -7 -7 -6 -6 -6 -6 -6 -6 -6 -6 -5 -5 -6 -6 -6 -6 -6 -7 -7
-8 -8 -8 -8 -8 -7 -7 -7 -7 -6 -6 -6 -6 -6 -6 -6 -6 -6 -6 -6 -6 -6 -6 -6 -6 -6 -5 -5 -5 -6 -6 -6 -7
-8 -8 -9 -8 -8 -8 -7 -7 -7 -6 -6 -6 -6 -6 -6 -6 -6 -6 -6 -6 -6 -6 -6 -6 -6 -6 -6 -6 -6 -6 -6 -7 -6
-9 -9 -9 -8 -8 -8 -8 -7 -7 -7 -7 -6 -6 -6 -6 -6 -6 -6 -6 -6 -6 -6 -6 -6 -6 -6 -6 -6 -6 -6 -6 -6 -6
-8 -9 -9 -9 -8 -8 -8 -8 -8 -7 -7 -7 -7 -7 -6 -6 -6 -6 -6 -6 -6 -6 -6 -6 -6 -6 -6 -6 -6 -6 -6 -7 -7
-9 -9 -9 -9 -9 -8 -8 -8 -8 -7 -7 -7 -7 -7 -7 -7 -6 -6 -6 -6 -6 -6 -6 -6 -6 -6 -6 -6 -6 -6 -6 -6 -7
-10 -9 -9 -9 -9 -9 -8 -8 -8 -8 -8 -8 -7 -7 -7 -7 -6 -6 -6 -6 -6 -6 -6 -6 -6 -7 -7 -7 -6 -7 -7 -7 -7
-10 -10 -10 -10 -9 -9 -8 -8 -8 -8 -8 -7 -7 -7 -7 -7 -7 -7 -7 -7 -7 -7 -7 -7 -7 -7 -7 -7 -7 -7 -8 -8 -8
-10 -10 -10 -10 -9 -9 -8 -8 -8 -8 -8 -8 -8 -8 -8 -8 -7 -7 -7 -7 -7 -7 -7 -7 -7 -7 -7 -7 -7 -7 -8 -9 -9
-10 -10 -10 -10 -9 -9 -9 -8 -8 -8 -8 -8 -8 -8 -8 -8 -8 -8 -8 -7 -7 -7 -7 -7 -7 -7 -7 -8 -8 -8 -9 -9 -9
-10 -10 -10 -10 -9 -9 -9 -9 -9 -8 -8 -8 -8 -8 -8 -8 -8 -8 -8 -8 -8 -8 -8 -8 -8 -8 -8 -9 -9 -10 -10 -9 -9
-10 -10 -10 -10 -9 -9 -9 -9 -9 -9 -9 -9 -9 -9 -8 -8 -8 -8 -8 -8 -8 -8 -8 -8 -9 -10 -10 -10 -10 -10 -10 -9 -10
-10 -10 -10 -10 -10 -10 -10 -10 -9 -9 -9 -9 -9 -9 -9 -9 -9 -9 -8 -8 -8 -8 -9 -10 -10 -10 -10 -10 -10 -10 -10 -10 -9
-11 -10 -10 -10 -10 -10 -10 -10 -10 -10 -10 -9 -10 -9 -9 -9 -9 -8 -8 -8 -9 -10 -10 -10 -10 -10 -10 -10 -10 -10 -10 -10 -9
Height
5902 5901 5902 5899 5900 5899 5901 5904 5906 5905 5905 5904 5903 5903 5901 5900 5901 5901 5903 5903 5904 5905 5906 5907 5907 5906 5906 5906 5907 5908 5909 5910 5911
5904 5903 5902 5902 5901 5900 5903 5905 5906 5906 5905 5905 5905 5905 5903 5901 5902 5902 5903 5905 5904 5903 5903 5905 5905 5905 5905 5905 5905 5904 5905 5906 5908
5904 5904 5903 5903 5901 5900 5900 5902 5904 5905 5905 5905 5904 5903 5901 5901 5902 5904 5903 5903 5905 5903 5901 5903 5903 5903 5903 5903 5902 5902 5902 5902 5903
5905 5904 5904 5903 5902 5900 5899 5901 5902 5902 5903 5903 5902 5900 5899 5901 5903 5904 5904 5902 5901 5901 5899 5898 5900 5901 5900 5899 5899 5899 5899 5898 5898
5905 5905 5905 5905 5904 5902 5901 5899 5898 5897 5898 5898 5898 5897 5898 5899 5900 5903 5900 5900 5898 5898 5898 5896 5896 5897 5897 5896 5895 5894 5894 5894 5894
5904 5905 5904 5904 5902 5901 5901 5900 5898 5897 5896 5896 5895 5895 5895 5897 5899 5898 5897 5897 5896 5896 5895 5894 5893 5893 5893 5892 5892 5890 5889 5889 5889
5901 5901 5900 5900 5899 5898 5897 5897 5896 5895 5894 5894 5893 5892 5891 5891 5891 5892 5892 5890 5891 5891 5890 5889 5889 5888 5888 5887 5886 5886 5884 5883 5883
5896 5896 5897 5896 5895 5895 5893 5892 5891 5890 5888 5887 5887 5887 5887 5886 5885 5885 5886 5886 5885 5884 5883 5883 5883 5883 5882 5880 5879 5878 5876 5875 5874
5891 5891 5890 5890 5889 5888 5887 5886 5885 5884 5882 5882 5881 5880 5880 5879 5878 5877 5877 5877 5877 5877 5877 5877 5876 5876 5874 5873 5871 5869 5867 5865 5864
5884 5884 5883 5883 5881 5881 5881 5880 5879 5878 5876 5876 5876 5874 5873 5872 5872 5871 5870 5870 5869 5868 5868 5868 5867 5866 5865 5863 5860 5858 5856 5854 5852
5877 5876 5875 5874 5874 5873 5873 5873 5872 5871 5870 5868 5866 5865 5863 5862 5862 5861 5861 5862 5862 5860 5859 5858 5856 5855 5854 5852 5849 5846 5843 5841 5839
5869 5868 5868 5868 5867 5866 5865 5864 5864 5862 5860 5858 5858 5856 5853 5851 5850 5849 5849 5849 5849 5850 5850 5847 5845 5843 5841 5839 5838 5834 5830 5827 5826
5861 5860 5860 5860 5859 5859 5858 5857 5856 5854 5852 5851 5849 5847 5845 5843 5842 5841 5839 5838 5838 5837 5836 5836 5833 5831 5827 5825 5823 5820 5817 5813 5810
5852 5852 5852 5852 5851 5850 5849 5849 5847 5846 5844 5843 5840 5837 5835 5833 5831 5830 5829 5828 5826 5824 5822 5820 5818 5816 5813 5811 5809 5806 5802 5799 5796
5842 5843 5843 5843 5842 5840 5839 5839 5838 5836 5834 5832 5829 5827 5825 5823 5821 5819 5817 5815 5813 5810 5808 5806 5803 5800 5797 5794 5792 5788 5786 5783 5782
5834 5834 5834 5833 5832 5829 5828 5827 5825 5823 5821 5820 5818 5816 5814 5812 5810 5807 5805 5803 5800 5797 5794 5792 5789 5786 5783 5779 5775 5771 5769 5767 5766
5824 5824 5823 5822 5821 5820 5818 5816 5815 5814 5812 5809 5807 5805 5803 5801 5799 5796 5793 5790 5787 5784 5780 5777 5773 5769 5765 5761 5758 5754 5751 5750 5749
5815 5814 5813 5812 5811 5810 5809 5807 5804 5802 5801 5799 5797 5795 5793 5790 5787 5783 5780 5776 5773 5768 5763 5759 5754 5750 5747 5744 5742 5736 5735 5733 5734
5804 5803 5803 5802 5801 5799 5798 5796 5794 5792 5790 5788 5786 5783 5780 5776 5773 5770 5766 5761 5756 5750 5746 5741 5737 5734 5730 5727 5724 5721 5719 5718 5718
5792 5792 5791 5790 5789 5788 5786 5784 5783 5781 5779 5776 5773 5769 5766 5763 5759 5756 5751 5746 5742 5738 5730 5726 5722 5718 5715 5712 5710 5707 5705 5704 5703
Wind_Speed
7 8 9 12 10 6 9 7 7 8 5 3 3 4 5 6 5 3 2 3 2 1 1 3 4 5 6 9 10 11 12 12 14
5 6 7 9 9 4 5 4 6 6 1 2 0 0 1 2 3 4 4 3 1 2 1 3 4 5 6 9 11 11 13 14 15
5 4 4 4 5 1 1 2 2 2 2 5 4 5 6 6 2 1 3 2 2 3 3 4 5 6 7 9 11 13 13 15 16
8 4 3 4 3 3 7 7 5 4 6 7 7 8 9 10 12 10 5 5 2 3 3 5 5 7 9 10 11 13 15 17 16
9 8 7 6 7 6 9 10 11 12 11 12 11 10 12 13 12 5 7 13 5 5 4 7 8 11 12 13 14 14 14 16 18
10 10 8 8 9 10 10 12 13 14 15 15 15 16 16 16 14 12 10 7 6 9 7 9 12 15 20 17 19 18 19 20 19
17 13 26 22 18 15 13 17 17 17 17 16 17 18 20 20 19 16 15 14 13 12 12 13 15 16 18 19 21 25 27 27 27
15 15 17 22 21 19 18 18 18 19 20 21 21 20 20 22 22 20 19 18 18 17 17 18 18 19 20 21 21 21 26 31 33
18 16 20 21 21 22 20 20 22 22 21 23 25 25 24 24 23 23 23 23 23 22 22 24 25 25 25 25 26 28 28 30 35
24 25 24 27 27 26 23 25 25 25 24 25 26 26 26 25 24 24 25 27 26 26 28 29 30 31 31 31 31 32 32 36 39
25 23 28 29 30 30 28 27 28 28 29 28 29 28 28 28 28 27 27 28 29 30 32 32 33 33 33 35 37 39 38 39 42
24 27 29 28 28 30 31 31 32 32 31 30 31 32 33 34 34 34 34 35 35 35 35 35 36 36 38 39 40 42 43 43 44
28 31 31 31 30 31 32 33 32 32 32 33 34 34 34 36 37 37 37 37 38 39 38 39 37 37 40 42 43 44 44 46 48
33 33 32 30 31 33 34 34 34 34 35 35 34 34 35 36 36 36 36 37 38 40 42 42 40 42 44 44 46 46 46 46 50
35 34 34 34 35 36 36 35 34 35 34 34 34 35 35 36 37 37 37 39 42 44 43 43 44 46 47 49 49 51 49 48 46
37 36 36 36 36 36 35 35 34 34 35 35 36 37 38 37 38 40 41 43 43 42 44 46 48 50 53 51 50 50 49 49 49
35 35 35 36 35 35 34 34 35 35 35 36 38 39 38 39 40 41 43 43 43 45 48 50 53 53 50 48 45 47 48 49 48
32 34 35 35 35 34 34 35 36 36 37 38 38 38 39 41 41 43 41 43 44 47 51 52 48 44 43 44 44 45 46 47 43
32 33 33 33 33 34 34 35 36 38 39 39 38 41 42 42 41 39 41 43 46 48 46 43 43 45 44 45 43 43 43 45 44
34 35 34 34 35 35 36 37 38 38 38 39 41 42 38 35 36 37 40 43 43 40 44 44 45 43 42 40 40 40 40 42 43
Wind_Direction
119 113 104 102 100 94 90 76 73 69 78 113 132 135 130 125 117 97 75 99 95 67 277 284 276 246 224 228 246 250 253 263 274
158 136 129 119 120 137 112 111 81 70 191 134 170 196 280 122 137 93 72 349 297 158 189 291 294 274 258 251 250 254 266 271 271
226 207 157 137 124 123 347 65 81 143 234 270 257 267 284 283 316 30 82 97 332 345 357 318 299 289 284 276 272 267 261 266 268
245 248 273 272 265 300 309 314 308 295 292 281 276 265 265 284 294 314 267 284 274 300 286 270 279 290 291 289 287 280 278 275 275
247 234 244 261 279 272 275 283 291 291 289 291 288 279 279 286 308 300 343 290 253 276 306 291 266 287 282 278 280 280 277 276 274
237 232 230 292 294 275 271 268 263 267 276 278 281 281 282 284 284 287 285 276 255 254 281 288 282 279 284 284 277 277 282 282 277
269 265 258 273 286 282 275 269 264 269 272 272 268 272 278 279 280 278 275 275 261 261 274 291 293 288 280 278 282 279 280 280 277
271 259 263 267 278 283 278 280 277 276 277 278 275 270 269 274 278 279 274 268 265 264 279 285 286 279 278 285 292 292 282 279 274
284 281 268 268 279 284 287 285 283 277 274 272 271 272 275 277 276 274 276 278 280 274 278 282 286 283 283 285 290 296 292 285 279
280 282 271 269 274 282 286 285 280 278 276 274 273 273 274 273 273 271 271 272 272 277 279 281 282 284 283 289 292 294 286 282 276
271 268 262 268 276 280 282 280 279 278 280 281 285 289 287 284 282 281 276 273 273 279 284 284 285 284 283 286 289 294 295 278 272
260 261 264 266 272 276 278 280 277 276 280 285 288 289 289 290 290 289 286 283 281 280 281 286 285 286 286 287 289 293 295 290 275
257 260 265 270 273 274 274 274 276 278 280 281 282 282 283 283 283 283 283 283 282 282 283 284 281 284 286 288 291 293 289 284 278
260 262 265 268 270 270 271 272 272 273 274 275 278 282 282 282 282 282 280 280 283 286 287 286 286 286 288 289 290 290 282 276 272
263 266 266 268 270 271 272 271 271 272 275 278 280 281 283 284 284 283 283 285 288 288 287 287 289 290 291 293 291 288 279 272 271
262 266 268 270 271 272 272 274 276 280 281 282 284 286 286 286 284 283 284 285 285 284 286 287 288 290 290 290 287 282 274 270 270
267 270 271 272 273 274 276 279 281 282 283 285 287 287 286 284 282 284 286 286 286 288 291 293 294 292 288 285 277 271 267 266 268
269 269 270 273 275 277 279 281 282 285 286 285 286 287 284 285 287 290 289 291 294 297 299 298 293 286 282 281 276 275 266 263 262
270 271 272 273 275 276 278 280 282 283 284 288 288 286 290 292 291 291 296 301 304 303 300 294 291 286 286 285 279 275 269 262 260
276 277 277 276 277 278 279 280 282 285 288 287 290 294 292 291 295 300 306 308 307 301 297 292 290 288 290 286 281 273 268 265 264